Regional Weather Roundup
Issued by NWS

Home | Current Version | Previous Version | Graphics & Text | Print | Product List | Glossary On
Versions: 1 2 3 4 5 6 7 8 9 10 11 12 13 14 15 16 17 18 19 20 21 22 23 24 25 26 27 28 29 30 31 32 33 34 35 36 37 38 39 40 41 42 43 44 45 46 47 48 49 50
000
ASUS43 KLMK 120102
RWRKY
KENTUCKY REGIONAL WEATHER ROUNDUP
NATIONAL WEATHER SERVICE LOUISVILLE KY
900 PM EDT FRI JUL 11 2014

NOTE "FAIR" INDICATES FEW OR NO CLOUDS BELOW 12,000 FEET
WITH NO SIGNIFICANT WEATHER AND/OR OBSTRUCTIONS TO VISIBILITY.

KYZ001>023-026-027-061>063-070>075-120200-
WESTERN AND SOUTH CENTRAL KENTUCKY

CITY           SKY/WX    TMP DP  RH WIND       PRES   REMARKS
PADUCAH        CLEAR     82  69  64 CALM      30.11R
HENDERSON      CLEAR     77  68  73 CALM      30.12R
OWENSBORO      CLEAR     83  63  50 NE3       30.13S
HOPKINSVILLE   CLEAR     84  65  52 W6        30.13R
BOWLING GREEN  CLEAR     84  61  45 CALM      30.14R
GLASGOW        NOT AVBL
$$

KYZ024-025-028>034-038-045-046-053-120200-
NORTH CENTRAL KENTUCKY

CITY           SKY/WX    TMP DP  RH WIND       PRES   REMARKS
LOUISVILLE/SDF PTCLDY    82  58  43 W8        30.14R
LOUISVILLE/LOU CLEAR     83  56  39 W5        30.14R
FORT KNOX      NOT AVBL
$$

KYZ035>037-039>044-047>052-055>060-089>105-120200-
NORTHEAST KENTUCKY

CITY           SKY/WX    TMP DP  RH WIND       PRES   REMARKS
LEXINGTON      CLEAR     79  64  60 NW3       30.16R
COVINGTON      MOCLDY    77  58  51 W3        30.15S
FRANKFORT      CLEAR     79  64  60 CALM      30.14R
$$

KYZ054-064>069-076>088-106>120-120200-
SOUTHEAST KENTUCKY

CITY           SKY/WX    TMP DP  RH WIND       PRES   REMARKS
JACKSON        CLEAR     78  59  51 CALM      30.19R
LONDON         CLEAR     82  57  42 CALM      30.17R
SOMERSET       CLEAR     79  59  50 CALM      30.16S
MIDDLESBORO    CLEAR     76  63  64 W3        30.17R
MONTICELLO     CLEAR     74  69  84 CALM      30.17R
$$



USA.gov is the U.S. government's official web portal to all federal, state and local government web resources and services.